This demonstration page uses our WeatherBlox Daily Observations layout. Learn more.

Left ArrowRight Arrow

31.31129, -92.44514

Hourly Observations for February 6, 2020

Temp ( °F °C ) Dew Point ( °F °C ) Humidity (%) Winds ( mph kmh ) Pressure ( in mb ) Visibility ( mi km ) Precip ( " mm )
12:26 am 00:26 Cloudy 46 7.8 44 6.7 93 93 NNW 10 17 29.64 1004 10 16 0.00 0.00
12:53 am 00:53 Cloudy 46 7.8 43 6.1 89 89 NW 14 22 29.66 1004 10 16 0.00 0.00
1:18 am 01:18 Cloudy 45 7.2 42 5.6 90 90 NW 14 22 29.67 1005 10 16 0.00 0.00
1:35 am 01:35 Cloudy 45 7.2 41 5 86 86 NW 20 31 29.68 1005 10 16 0.00 0.00
1:53 am 01:53 Cloudy with Light Rain 45 7.2 42 5.6 90 90 NW 17 28 29.72 1007 10 16 0.00 0.00
2:29 am 02:29 Cloudy with Nearby Thunderstorms 45 7.2 43 6.1 93 93 NNW 8 13 29.68 1005 4 6 0.03 0.76
2:37 am 02:37 Cloudy with Strong Thunderstorms 45 7.2 43 6.1 93 93 NW 10 17 29.73 1007 3 5 0.10 2.54
2:43 am 02:43 Cloudy with Strong Thunderstorms 45 7.2 42 5.6 90 90 NNW 14 22 29.68 1005 3 4 0.13 3.30
2:45 am 02:45 Cloudy with Strong Thunderstorms 44 6.7 42 5.6 93 93 NNW 14 22 29.67 1005 3 5 0.13 3.30
2:53 am 02:53 Cloudy with Thunderstorms 44 6.7 41 5 89 89 NW 13 20 29.72 1006 9 14 0.14 3.56
2:58 am 02:58 Cloudy with Light Rain 44 6.7 41 5 89 89 NNW 15 24 29.66 1004 10 16 0.00 0.00
3:28 am 03:28 Cloudy with Nearby Thunderstorms 43 6.1 41 5 93 93 NW 7 11 29.67 1005 6 10 0.04 1.02
3:43 am 03:43 Cloudy with Light Rain 43 6.1 41 5 93 93 WNW 15 24 29.69 1006 10 16 0.04 1.02
3:51 am 03:51 Cloudy with Light Rain 43 6 41 5 93 93 WNW 15 24 29.69 1006 10 16 0.05 1.27
3:53 am 03:53 Cloudy with Rain 43 6.1 41 5 93 93 WNW 13 20 29.71 1006 8 13 0.05 1.27
4:30 am 04:30 Mostly Cloudy 42 5.6 40 4.4 92 92 NNW 8 13 29.64 1004 10 16 0.03 0.76
4:53 am 04:53 Partly Cloudy 42 5.6 39 3.9 89 89 NNE 3 6 29.67 1005 10 16 0.03 0.76
5:08 am 05:08 Mostly Cloudy 42 5.6 40 4.4 92 92 E 3 6 29.63 1003 10 16 0.00 0.00
5:18 am 05:18 Mostly Cloudy 42 5.6 40 4.4 92 92 E 6 9 29.61 1003 10 16 0.00 0.00
5:53 am 05:53 Cloudy 43 6.1 41 5 93 93 Calm 29.63 1003 10 16 0.00 0.00
6:22 am 06:22 Cloudy 43 6.1 41 5 93 93 W 13 20 29.68 1005 6 10 0.00 0.00
6:35 am 06:35 Cloudy with Light Rain 42 5.6 41 5 96 96 WNW 14 22 29.68 1005 2 3 0.00 0.00
6:53 am 06:53 Cloudy with Light Rain 42 5.6 40 4.4 92 92 WNW 16 26 29.70 1006 2 3 0.00 0.00
7:09 am 07:09 Cloudy 42 5.6 40 4.4 92 92 WNW 15 24 29.70 1006 3 5 0.00 0.00
7:25 am 07:25 Cloudy 41 5 40 4.4 96 96 WNW 15 24 29.69 1006 3 4 0.00 0.00
7:49 am 07:49 Cloudy 41 5 39 4 93 93 NW 15 24 29.70 1006 3 5 0.00 0.00
7:53 am 07:53 Cloudy 41 5 39 3.9 93 93 WNW 12 19 29.72 1007 3 4 0.00 0.00
8:37 am 08:37 Cloudy 40 4.4 38 3.3 93 93 WNW 15 24 29.72 1007 5 8 0.00 0.00
8:53 am 08:53 Cloudy 40 4.4 38 3.3 93 93 WNW 18 30 29.74 1007 10 16 0.00 0.00
9:00 am 09:00 Cloudy 40 4.4 37 2.8 89 89 WNW 18 30 29.73 1007 10 16 0.00 0.00
9:53 am 09:53 Cloudy 40 4.4 37 2.8 89 89 NW 14 22 29.75 1007 4 6 0.00 0.00
10:04 am 10:04 Cloudy with Light Rain 40 4.4 38 3.3 93 93 WNW 12 19 29.74 1007 3 4 0.00 0.00
10:18 am 10:18 Cloudy with Light Rain 40 4.4 38 3.3 93 93 WNW 13 20 29.74 1007 4 6 0.00 0.00
10:36 am 10:36 Cloudy 39 3.9 37 2.8 93 93 WNW 14 22 29.76 1008 6 10 0.00 0.00
10:44 am 10:44 Cloudy 40 4.4 37 2.8 89 89 WNW 14 22 29.75 1008 4 6 0.00 0.00
10:53 am 10:53 Cloudy 40 4.4 37 2.8 89 89 WNW 10 17 29.77 1008 3 5 0.00 0.00
11:04 am 11:04 Cloudy 40 4.4 37 2.8 89 89 WNW 14 22 29.75 1008 8 13 0.00 0.00
11:07 am 11:07 Cloudy 40 4.4 37 2.8 89 89 WNW 13 20 29.74 1007 10 16 0.00 0.00
11:53 am 11:53 Cloudy 40 4.4 36 2.2 86 86 WNW 12 19 29.75 1007 10 16 0.00 0.00
12:00 pm 12:00 Cloudy 40 4.4 36 2.2 86 86 WNW 9 15 29.73 1007 10 16 0.00 0.00
12:53 pm 12:53 Cloudy 40 4.4 36 2.2 86 86 WNW 10 17 29.71 1006 10 16 0.00 0.00
1:23 pm 13:23 Cloudy 40 4.4 36 2.2 86 86 WNW 15 24 29.67 1005 10 16 0.00 0.00
1:53 pm 13:53 Cloudy 40 4.4 36 2.2 86 86 W 15 24 29.68 1005 10 16 0.00 0.00
2:00 pm 14:00 Cloudy 39 3.9 36 2.2 89 89 W 14 22 29.67 1005 9 14 0.00 0.00
2:10 pm 14:10 Cloudy 39 3.9 36 2.2 89 89 W 15 24 29.65 1004 8 13 0.00 0.00
2:18 pm 14:18 Cloudy 40 4.4 36 2.2 86 86 WNW 14 22 29.66 1005 9 14 0.00 0.00
2:25 pm 14:25 Cloudy 40 4.4 36 2.2 86 86 WNW 14 22 29.66 1005 10 16 0.00 0.00
2:41 pm 14:41 Cloudy 39 3.9 35 1.7 86 86 W 18 30 29.67 1005 9 14 0.00 0.00
2:53 pm 14:53 Cloudy 39 3.9 34 1.1 82 82 W 13 20 29.68 1005 10 16 0.00 0.00
3:53 pm 15:53 Cloudy 39 3.9 32 0 76 76 W 17 28 29.70 1006 10 16 0.00 0.00
4:31 pm 16:31 Cloudy 39 3.9 31 -0.6 73 73 W 20 31 29.71 1006 10 16 0.00 0.00
4:48 pm 16:48 Cloudy 37 3 30 -1 75 75 W 16 26 29.72 1007 10 16 0.00 0.00
4:53 pm 16:53 Cloudy 38 3.3 31 -0.6 76 76 W 13 20 29.73 1007 10 16 0.00 0.00
5:12 pm 17:12 Cloudy 39 3.9 31 -0.6 73 73 WNW 15 24 29.72 1007 10 16 0.00 0.00
5:53 pm 17:53 Clear 38 3.3 30 -1.1 73 73 WNW 12 19 29.74 1007 10 16 0.00 0.00
6:53 pm 18:53 Clear 38 3.3 27 -2.8 65 65 WNW 13 20 29.77 1008 10 16 0.00 0.00
7:53 pm 19:53 Clear 35 1.7 29 -1.7 78 78 W 6 9 29.80 1009 10 16 0.00 0.00
8:53 pm 20:53 Clear 32 0 28 -2.2 85 85 Calm 29.82 1010 10 16 0.00 0.00
9:53 pm 21:53 Clear 33 0.6 28 -2.2 82 82 Calm 29.83 1010 10 16 0.00 0.00
10:53 pm 22:53 Clear 32 0 27 -2.8 82 82 Calm 29.85 1011 10 16 0.00 0.00
11:53 pm 23:53 Clear 31 -0.6 27 -2.8 85 85 Calm 29.87 1011 10 16 0.00 0.00

Powered by AerisWeather